Simultaneous Nadir Overpasses (SNOs) Predictions

Prediction of SNOs near US between AQUA and NPP Satellite Orbit:

Table of predicted SNOs near US for the next 10.0 days since TLE Epoch: 9/30/2016
Index Date (AQUA) Time (AQUA) AQUA Lat,Lon Date (NPP) Time (NPP) NPP Lat,Lon Distance(km) Time Diff (sec)
1 10/01/2016 18:16:28 49.98, -80.18 10/01/2016 18:11:01 49.74, -81.69 111.13 327
2 10/01/2016 19:55:21 49.98,-104.90 10/01/2016 19:52:29 49.63,-107.01 156.36 172
3 10/01/2016 21:30:31 36.68,-124.99 10/01/2016 21:30:07 36.20,-127.50 230.79 24
4 10/04/2016 09:22:34 25.41,-112.96 10/04/2016 09:15:43 25.46,-113.35 38.94 411
5 10/07/2016 06:29:52 46.41, -65.03 10/07/2016 06:31:02 46.83, -67.00 157.37 70
6 10/07/2016 08:07:46 49.92, -88.36 10/07/2016 08:11:30 50.39, -90.85 185.47 224
7 10/07/2016 09:46:39
